Location: Corcelles
(46.1547°N, 4.7234°E)
Time: 04:37:05
(UTC+00:00)

Cosmos 1833 Rocket - Pass Details

Date: 14 July 2020
Orbit: 832 x 840 km, 71.0° (Epoch: 06 August)

Event Time Altitude Azimuth Distance (km) Brightness Sun altitude
Exits shadow 02:26:44 18° 231° (SW) 1,943 4.0 -13.2°
Maximum altitude 02:30:46 51° 302° (WNW) 1,039 3.1 -12.8°
Drops below altitude 10° 02:36:15 10° 18° (NNE) 2,455 6.3 -12.2°
Sets 02:38:47 0° 24° (NNE) 3,394 7.5 -11.9°
